Change the Weather History Date:

Saturday, February 16, 2013

  Actual Average Record
Temperature  
Mean Temperature 8 °F -  
Max Temperature 19 °F 29 °F 56 °F (1984)
Min Temperature -4 °F 8 °F -17 °F (1965)
Degree Days  
Heating Degree Days 58    
Moisture  
Dew Point 1 °F    
Average Humidity 68    
Maximum Humidity 92    
Minimum Humidity 46    
Precipitation  
Precipitation 0.00 in - - ()
Sea Level Pressure  
Sea Level Pressure 30.18 in    
Wind  
Wind Speed 3 mph (NW)    
Max Wind Speed 8 mph    
Max Gust Speed -    
Visibility 10 miles    
Events      
Averages and records for this station are not official NWS values.
T = Trace of Precipitation, MM = Missing Value Source: NWS Daily Summary

Daily Weather History Graph

Daily Weather History Graph

Search for Another Location

Airport or City:

Trip Planner

Search our weather history database for the weather conditions in past years. The results will help you decide how hot, cold, wet, or windy it might be!

Date:

Astronomy

Feb. 16, 2013 Rise Set
Actual Time 7:00 AM CST 5:34 PM CST
Civil Twilight 6:30 AM CST 6:04 PM CST
Nautical Twilight 5:56 AM CST 6:37 PM CST
Astronomical Twilight 5:23 AM CST 7:11 PM CST
Moon 9:58 AM CST (2/16) No Moon Set
Length of Visible Light 11h 33m
Length of Day
10h 34m
Waxing Crescent, 39% of the Moon is Illuminated
Feb 16
Waxing Crescent
Feb 17
First Quarter
Feb 25
Full
Mar 4
Last Quarter
Mar 11
New

Hourly Weather History & Observations

Time (CST) Temp. Windchill Dew Point Humidity Pressure Visibility Wind Dir Wind Speed Gust Speed Precip Events Conditions
12:15 AM 12.2 °F 4.3 °F 1.4 °F 62% 30.22 in 10.0 mi West 4.6 mph - N/A   Overcast
12:35 AM 12.2 °F 4.3 °F 1.4 °F 62% 30.22 in 10.0 mi WSW 4.6 mph - N/A   Overcast
12:55 AM 12.2 °F 4.3 °F 3.2 °F 67% 30.21 in 10.0 mi West 4.6 mph - N/A   Overcast
1:15 AM 12.2 °F - 3.2 °F 67% 30.20 in 10.0 mi Calm Calm - N/A   Overcast
1:35 AM 12.2 °F - 3.2 °F 67% 30.20 in 10.0 mi Calm Calm - N/A   Overcast
1:55 AM 12.2 °F - 3.2 °F 67% 30.19 in 10.0 mi Calm Calm - N/A   Overcast
2:15 AM 10.4 °F - 3.2 °F 73% 30.19 in 10.0 mi Calm Calm - N/A   Overcast
2:35 AM 12.2 °F - 3.2 °F 67% 30.19 in 10.0 mi Calm Calm - N/A   Overcast
2:55 AM 12.2 °F - 3.2 °F 67% 30.18 in 10.0 mi Calm Calm - N/A   Overcast
3:15 AM 10.4 °F 4.0 °F 3.2 °F 73% 30.18 in 10.0 mi WSW 3.5 mph - N/A   Overcast
3:35 AM 10.4 °F 4.0 °F 5.0 °F 79% 30.18 in 10.0 mi West 3.5 mph - N/A   Overcast
3:55 AM 10.4 °F -0.4 °F 3.2 °F 73% 30.18 in 10.0 mi West 6.9 mph - N/A   Overcast
4:15 AM 10.4 °F 2.2 °F 3.2 °F 73% 30.18 in 10.0 mi West 4.6 mph - N/A   Overcast
4:35 AM 10.4 °F 2.2 °F 3.2 °F 73% 30.17 in 10.0 mi West 4.6 mph - N/A   Overcast
5:15 AM 8.6 °F 2.0 °F 3.2 °F 79% 30.17 in 10.0 mi West 3.5 mph - N/A   Overcast
5:35 AM 8.6 °F 2.0 °F 3.2 °F 79% 30.17 in 10.0 mi West 3.5 mph - N/A   Overcast
6:15 AM 8.6 °F 2.0 °F 3.2 °F 79% 30.17 in 10.0 mi WNW 3.5 mph - N/A   Overcast
6:35 AM 8.6 °F - 3.2 °F 79% 30.17 in 10.0 mi Calm Calm - N/A   Overcast
6:55 AM 8.6 °F - 3.2 °F 79% 30.18 in 10.0 mi Calm Calm - N/A   Overcast
7:15 AM 6.8 °F - 1.4 °F 79% 30.19 in 10.0 mi Calm Calm - N/A   Mostly Cloudy
7:35 AM 6.8 °F - 1.4 °F 79% 30.19 in 10.0 mi Calm Calm - N/A   Scattered Clouds
7:55 AM 8.6 °F - 1.4 °F 73% 30.19 in 10.0 mi Calm Calm - N/A   Clear
8:15 AM 8.6 °F - 1.4 °F 73% 30.20 in 10.0 mi Calm Calm - N/A   Clear
8:35 AM 8.6 °F - 1.4 °F 73% 30.20 in 10.0 mi Calm Calm - N/A   Clear
8:55 AM 10.4 °F - 3.2 °F 73% 30.20 in 10.0 mi Calm Calm - N/A   Clear
9:15 AM 10.4 °F - 3.2 °F 73% 30.20 in 10.0 mi Calm Calm - N/A   Clear
9:35 AM 12.2 °F 6.1 °F 3.2 °F 67% 30.19 in 10.0 mi NNE 3.5 mph - N/A   Clear
12:15 PM 15.8 °F 6.1 °F 1.4 °F 53% 30.17 in 10.0 mi WNW 6.9 mph - N/A   Mostly Cloudy
12:35 PM 17.6 °F 9.3 °F 1.4 °F 49% 30.17 in 10.0 mi West 5.8 mph - N/A   Scattered Clouds
12:55 PM 17.6 °F 10.7 °F 1.4 °F 49% 30.16 in 10.0 mi WNW 4.6 mph - N/A   Scattered Clouds
1:15 PM 17.6 °F 10.7 °F 1.4 °F 49% 30.15 in 10.0 mi NW 4.6 mph - N/A   Scattered Clouds
1:35 PM 17.6 °F 10.7 °F 1.4 °F 49% 30.15 in 10.0 mi West 4.6 mph - N/A   Mostly Cloudy
1:55 PM 17.6 °F 9.3 °F 1.4 °F 49% 30.15 in 10.0 mi NW 5.8 mph - N/A   Mostly Cloudy
2:15 PM 19.4 °F 10.4 °F 1.4 °F 46% 30.15 in 10.0 mi North 6.9 mph - N/A   Scattered Clouds
2:35 PM 19.4 °F 10.4 °F 1.4 °F 46% 30.15 in 10.0 mi NNW 6.9 mph - N/A   Clear
2:55 PM 19.4 °F 14.3 °F 1.4 °F 46% 30.15 in 10.0 mi NNW 3.5 mph - N/A   Clear
3:15 PM 19.4 °F 14.3 °F 1.4 °F 46% 30.15 in 10.0 mi WNW 3.5 mph - N/A   Scattered Clouds
3:35 PM 17.6 °F 8.2 °F 1.4 °F 49% 30.15 in 10.0 mi North 6.9 mph - N/A   Clear
3:55 PM 19.4 °F 10.4 °F 1.4 °F 46% 30.15 in 10.0 mi NW 6.9 mph - N/A   Clear
4:15 PM 17.6 °F 10.7 °F 1.4 °F 49% 30.15 in 10.0 mi North 4.6 mph - N/A   Clear
4:35 PM 17.6 °F 7.3 °F 1.4 °F 49% 30.15 in 10.0 mi North 8.1 mph - N/A   Clear
4:55 PM 17.6 °F 9.3 °F 1.4 °F 49% 30.16 in 10.0 mi North 5.8 mph - N/A   Clear
5:15 PM 15.8 °F 8.6 °F -0.4 °F 49% 30.17 in 10.0 mi North 4.6 mph - N/A   Clear
5:35 PM 14.0 °F 6.5 °F -0.4 °F 53% 30.17 in 10.0 mi North 4.6 mph - N/A   Clear
5:55 PM 14.0 °F 6.5 °F -0.4 °F 53% 30.17 in 10.0 mi North 4.6 mph - N/A   Clear
6:15 PM 12.2 °F 6.1 °F 1.4 °F 62% 30.18 in 10.0 mi North 3.5 mph - N/A   Clear
6:35 PM 10.4 °F - 1.4 °F 67% 30.18 in 10.0 mi Calm Calm - N/A   Clear
6:55 PM 8.6 °F - -0.4 °F 67% 30.18 in 10.0 mi Calm Calm - N/A   Clear
7:15 PM 5.0 °F - -0.4 °F 78% 30.18 in 10.0 mi Calm Calm - N/A   Clear
7:35 PM 5.0 °F - -0.4 °F 78% 30.17 in 10.0 mi Calm Calm - N/A   Clear
7:55 PM 3.2 °F - -0.4 °F 85% 30.17 in 10.0 mi Calm Calm - N/A   Clear
8:15 PM 3.2 °F -4.2 °F -2.2 °F 78% 30.18 in 10.0 mi East 3.5 mph - N/A   Clear
8:35 PM 3.2 °F - -2.2 °F 78% 30.18 in 10.0 mi Calm Calm - N/A   Clear
8:55 PM 1.4 °F - -4.0 °F 78% 30.18 in 10.0 mi Calm Calm - N/A   Clear
9:15 PM 1.4 °F - -4.0 °F 78% 30.18 in 10.0 mi Calm Calm - N/A   Clear
9:35 PM -0.4 °F - -4.0 °F 85% 30.18 in 10.0 mi Calm Calm - N/A   Clear
9:55 PM -0.4 °F - -4.0 °F 85% 30.18 in 10.0 mi Calm Calm - N/A   Clear
10:15 PM -2.2 °F - -5.8 °F 85% 30.18 in 10.0 mi Calm Calm - N/A   Clear
10:35 PM -2.2 °F - -5.8 °F 85% 30.18 in 10.0 mi Calm Calm - N/A   Clear
10:55 PM -4.0 °F - -5.8 °F 92% 30.18 in 10.0 mi Calm Calm - N/A   Clear
11:15 PM -4.0 °F - -7.6 °F 85% 30.17 in 10.0 mi Calm Calm - N/A   Clear
11:35 PM -4.0 °F - -7.6 °F 85% 30.17 in 10.0 mi Calm Calm - N/A   Clear
11:55 PM -4.0 °F - -7.6 °F 85% 30.16 in 10.0 mi Calm Calm - N/A   Clear